BEIDOU-2 M4 (C12)

Last updated on Wed Aug 26 2026 00:04:16 GMT+0000 (Coordinated Universal Time)

1 38251U 12018B 26237.38871891 -.00000032 00000+0 00000+0 0 9990 2 38251 55.5943 301.7476 0013753 271.9274 87.9950 1.86229928 97237
UTC large
Height (km)
Speed (km/s)
/
Latitude / Longitude
Inclination (degrees)
Orbital Period (minutes)
Azimuth
Elevation
Range (km)
Doppler Factor

Next 0 passes for location: London (51.5072 / 0.1276)

No passes found over London.
BEIDOU-2 M4 (C12)